This is the latest recevied weather packets stored in our database for station/object AI5BL. If no packets are shown the sender has not sent any weather packets the latest 10 day(s).
| Time | Temp. | Humidity | Pressure | Rain* | Wind** | Luminosity | Snow |
|---|---|---|---|---|---|---|---|
| 1777668028 | 11.67° C | 97% | 1015.3 hPa | 4.83 mm | - | 55 W/m² | - |
| 1777667725 | 11.67° C | 96% | 1015.3 hPa | 4.83 mm | - | 47 W/m² | - |
| 1777667423 | 11.67° C | 95% | 1015.3 hPa | 4.32 mm | - | 54 W/m² | - |
| 1777666816 | 12.22° C | 95% | 1015.6 hPa | 1.78 mm | - | 41 W/m² | - |
| 1777660753 | 15.56° C | 94% | 1016.5 hPa | 0 mm | - | 72 W/m² | - |
| 1777660450 | 15.56° C | 95% | 1016.4 hPa | 0 mm | - | 78 W/m² | - |
| 1777660147 | 15° C | 95% | 1016.5 hPa | 0 mm | - | 103 W/m² | - |
| 1777659844 | 15° C | 95% | 1016.5 hPa | 0 mm | - | 77 W/m² | - |
| 1777659237 | 15.56° C | 95% | 1016.6 hPa | 0 mm | - | 74 W/m² | - |
| 1777658934 | 15.56° C | 93% | 1016.6 hPa | 0 mm | - | 88 W/m² | - |
| 1777658630 | 15.56° C | 93% | 1016.4 hPa | 0 mm | - | 111 W/m² | - |
| 1777658024 | 15.56° C | 95% | 1016.7 hPa | 0 mm | - | 184 W/m² | - |
| 1777656814 | 15.56° C | 97% | 1017 hPa | 0 mm | - | 141 W/m² | - |
| 1777656509 | 15.56° C | 97% | 1017.5 hPa | 3.05 mm | - | 141 W/m² | - |
| 1777656204 | 15.56° C | 97% | 1017.5 hPa | 3.05 mm | - | 141 W/m² | - |
| 1777655597 | 15.56° C | 97% | 1017.8 hPa | 0 mm | - | 122 W/m² | - |
| 1777655294 | 15.56° C | 97% | 1017.8 hPa | 0 mm | - | 122 W/m² | - |
| 1777654688 | 15.56° C | 96% | 1017.5 hPa | 0 mm | - | 122 W/m² | - |
| 1777654084 | 15.56° C | 96% | 1017.6 hPa | 0 mm | - | 179 W/m² | - |
| 1777653476 | 15.56° C | 96% | 1018.2 hPa | 0 mm | - | 123 W/m² | - |
| 1777653174 | 15.56° C | 96% | 1018.1 hPa | 0 mm | - | 120 W/m² | - |
| 1777652869 | 15.56° C | 97% | 1018.1 hPa | 0 mm | - | 135 W/m² | - |
| 1777652567 | 15.56° C | 97% | 1018.1 hPa | 0 mm | - | 248 W/m² | - |
| 1777652263 | 15.56° C | 96% | 1017.2 hPa | 0 mm | - | 235 W/m² | - |
| 1777651961 | 15.56° C | 96% | 1017 hPa | 6.1 mm | - | 267 W/m² | - |
* Rain latest hour (hover to see other rain measurements)
** Current wind speed in m/s (hover to see current wind gust speed)